• Join FlightAware (Why Join?)
  • Login
  • US Flag GB Flag 
15:59 EDT


 

Airport Tracker/Info


-or-


 

Live Flight TrackerFlight Track Log ✈ SWA286 ✈ 10-Apr-2013 ✈ KBWI - KRSW

Flight Track Log - Related Links

Times and Time Zones

All times are in EDT time to prevent confusion due to time zone crossing. See the SWA286 flight status page for this flight to view local times or setup timezone preferences in your user account.

Time Position Orientation Groundspeed Altitude Reporting Facility
EDT Latitude Longitude Course Direction KTS MPH feet Rate Location/Type
17:24 39.1414 -76.7397 143° Southeast 232 267 4,500  Level Washington Center
17:25 39.0833 -76.6833 143° Southeast 280 322 6,800 3,240 Climbing Potomac TRACON
17:26 39.0167 -76.6667 169° South 285 328 9,800 2,760 Climbing Potomac TRACON
17:27 38.9333 -76.6833 189° South 340 391 12,100 2,700 Climbing Potomac TRACON
17:28 38.8061 -76.6944 184° South 388 447 16,200 3,000 Climbing Washington Center
17:29 38.6997 -76.7064 185° South 393 452 19,200 2,880 Climbing Washington Center
17:30 38.5869 -76.7206 186° South 393 452 22,000 1,860 Climbing Washington Center
17:31 38.4767 -76.7136 177° South 399 459 23,000 1,260 Climbing Washington Center
17:32 38.3642 -76.6986 174° South 404 465 24,600 1,500 Climbing Washington Center
17:33 38.2475 -76.6836 174° South 415 478 26,000 1,440 Climbing Washington Center
17:34 38.1225 -76.6661 174° South 428 493 27,500 1,620 Climbing Washington Center
17:35 37.9997 -76.6511 175° South 445 512 29,300 1,740 Climbing Washington Center
17:36 37.8767 -76.6336 174° South 445 512 31,000 1,740 Climbing Washington Center
17:37 37.7497 -76.6161 174° South 451 519 32,800 1,500 Climbing Washington Center
17:38 37.6225 -76.5986 174° South 462 532 34,000 1,320 Climbing Washington Center
17:39 37.4956 -76.5814 174° South 462 532 35,500 1,380 Climbing Washington Center
17:40 37.3725 -76.5667 175° South 462 532 36,800 1,200 Climbing Washington Center
17:41 37.2453 -76.5519 175° South 462 532 37,900 600 Climbing Washington Center
17:42 37.1203 -76.5347 174° South 462 532 38,000  Climbing Washington Center
17:43 37.0033 -76.5750 195° South 444 511 38,000  Level Washington Center
17:44 36.8900 -76.6306 201° Southwest 434 499 38,000  Level Washington Center
17:45 36.7789 -76.6889 203° Southwest 439 505 38,000  Level Washington Center
17:46 36.6553 -76.7544 203° Southwest 444 511 38,000  Level Washington Center
17:47 36.5422 -76.8097 201° Southwest 444 511 38,000  Level Washington Center
17:48 36.4414 -76.8597 202° Southwest 436 502 38,000  Level Washington Center
17:49 36.3178 -76.9222 202° Southwest 436 502 38,000  Level Washington Center
17:50 36.2044 -76.9769 201° Southwest 436 502 38,000  Level Washington Center
17:51 36.0892 -77.0236 198° South 436 502 38,000  Level Washington Center
17:52 35.9697 -77.0678 197° South 436 502 38,000  Level Washington Center
17:53 35.8544 -77.1092 196° South 436 502 38,000  Level Washington Center
17:54 35.7392 -77.1506 196° South 441 507 38,000  Level Washington Center
17:55 35.6217 -77.1942 197° South 441 507 38,000  Level Washington Center
17:56 35.5042 -77.2378 197° South 441 507 38,000  Level Washington Center
17:57 35.3847 -77.2811 196° South 441 507 38,000  Level Washington Center
17:58 35.2694 -77.3219 196° South 441 507 38,000  Level Washington Center
17:59 35.1561 -77.3653 197° South 441 507 38,000  Level Washington Center
18:00 35.0406 -77.4083 197° South 441 507 38,000  Level Washington Center
18:01 34.9253 -77.4489 196° South 441 507 38,000  Level Washington Center
18:02 34.8119 -77.4944 198° South 441 507 38,000  Level Washington Center
18:03 34.6964 -77.5347 196° South 441 507 38,000  Level Washington Center
18:04 34.5789 -77.5747 196° South 441 507 38,000  Level Washington Center
18:08 34.1089 -77.7414 196° South 442 509 38,000  Level Jacksonville Center
18:09 33.9875 -77.7811 195° South 442 509 38,000  Level Jacksonville Center
18:10 33.8703 -77.8253 197° South 442 509 38,000  Level Jacksonville Center
18:12 33.6253 -77.9117 196° South 437 503 38,000  Level Jacksonville Center
18:13 33.5103 -77.9531 197° South 432 497 38,000  Level Jacksonville Center
18:14 33.3969 -77.9917 196° South 432 497 38,000  Level Jacksonville Center
18:15 33.2817 -78.0328 197° South 432 497 38,000  Level Jacksonville Center
18:16 33.1686 -78.0739 197° South 432 497 38,000  Level Jacksonville Center
18:17 33.0531 -78.1122 196° South 432 497 38,000  Level Jacksonville Center
18:18 32.9397 -78.1503 196° South 432 497 38,000  Level Jacksonville Center
18:19 32.8242 -78.1886 196° South 432 497 38,000  Level Jacksonville Center
18:20 32.7089 -78.2317 197° South 432 497 38,000  Level Jacksonville Center
18:21 32.5975 -78.2669 195° South 432 497 38,000  Level Jacksonville Center
18:22 32.4800 -78.3075 196° South 432 497 38,000  Level Jacksonville Center
18:23 32.3647 -78.3453 195° South 432 497 38,000  Level Jacksonville Center
18:24 32.2617 -78.3847 198° South 432 497 38,000  Level Jacksonville Center
18:25 32.1481 -78.4222 196° South 432 497 38,000  Level Jacksonville Center
18:26 32.0286 -78.4622 196° South 439 505 38,000  Level Jacksonville Center
18:27 31.9131 -78.4997 195° South 434 499 38,000  Level Jacksonville Center
18:28 31.7975 -78.5419 197° South 434 499 38,000  Level Jacksonville Center
18:29 31.6797 -78.5792 195° South 434 499 38,000  Level Jacksonville Center
18:30 31.5622 -78.6211 197° South 434 499 38,000  Level Jacksonville Center
18:31 31.4425 -78.6631 197° South 434 499 38,000  Level Jacksonville Center
18:32 31.3267 -78.6975 194° South 434 499 38,000  Level Jacksonville Center
18:33 31.2131 -78.7342 195° South 434 499 38,000  Level Jacksonville Center
18:34 31.0956 -78.7781 198° South 434 499 38,000  Level Jacksonville Center
18:35 30.9694 -78.8175 195° South 431 496 38,000  Level Jacksonville Center
18:36 30.8497 -78.8567 196° South 448 516 38,000  Level Jacksonville Center
18:37 30.7342 -78.8953 196° South 442 509 38,000  Level Jacksonville Center
18:39 30.5736 -78.9461 195° South 418 481 38,000  Level Miami Center
18:40 30.4647 -78.9825 196° South 423 487 38,000  Level Miami Center
18:41 30.3492 -79.0308 200° South 428 493 38,000  Level Miami Center
18:42 30.2381 -79.0764 200° South 428 493 38,000 -120 Level Miami Center
18:43 30.1267 -79.1317 203° Southwest 434 499 37,800 -660 Descending Miami Center
18:44 30.0131 -79.2061 210° Southwest 428 493 36,700 -900 Descending Miami Center
18:45 29.9075 -79.2706 208° Southwest 428 493 36,000 -360 Descending Miami Center
18:46 29.7981 -79.3328 206° Southwest 433 498 36,000  Level Miami Center
18:47 29.6867 -79.3925 205° Southwest 439 505 36,000  Level Miami Center
18:48 29.5769 -79.4567 207° Southwest 439 505 36,000  Level Miami Center
18:49 29.4694 -79.5158 206° Southwest 439 505 36,000 -480 Level Miami Center
18:50 29.3597 -79.5800 207° Southwest 439 505 35,100 -900 Descending Miami Center
18:51 29.2461 -79.6389 204° Southwest 439 505 34,200 -1,200 Descending Miami Center
18:52 29.1364 -79.7053 208° Southwest 445 512 32,800 -1,500 Descending Miami Center
18:53 29.0244 -79.7664 206° Southwest 445 512 31,300 -1,860 Descending Miami Center
18:54 28.9189 -79.8275 207° Southwest 440 506 29,100 -2,220 Descending Miami Center
18:55 28.8156 -79.8864 207° Southwest 435 501 26,900 -2,220 Descending Miami Center
18:56 28.7142 -79.9428 206° Southwest 425 489 24,700 -1,500 Descending Miami Center
18:57 28.6414 -80.0258 225° Southwest 369 425 24,000 -360 Descending Miami Center
18:58 28.5933 -80.1239 241° Southwest 388 447 24,000  Level Miami Center
18:59 28.5344 -80.2261 237° Southwest 394 453 24,000 -300 Level Miami Center
19:00 28.4775 -80.3472 242° Southwest 394 453 23,500 -780 Descending Miami Center
19:01 28.4247 -80.4517 240° Southwest 386 444 22,500 -1,020 Descending Miami Center
19:02 28.3394 -80.5197 215° Southwest 381 438 21,500 -1,020 Descending Miami Center
19:03 28.2522 -80.5828 212° Southwest 381 438 20,500 -1,020 Descending Miami Center
19:04 28.1631 -80.6458 212° Southwest 381 438 19,500 -1,020 Descending Miami Center
19:05 28.0800 -80.7067 213° Southwest 381 438 18,500 -960 Descending Miami Center
19:06 27.9969 -80.7697 214° Southwest 372 428 17,600 -780 Descending Miami Center
19:07 27.9119 -80.8303 212° Southwest 372 428 17,000 -300 Descending Miami Center
19:08 27.8267 -80.8906 212° Southwest 372 428 17,100 -300 Climbing Miami Center
19:09 27.7456 -80.9533 214° Southwest 372 428 16,400 -900 Descending Miami Center
19:10 27.6689 -81.0092 213° Southwest 372 428 15,400 -1,080 Descending Miami Center
19:11 27.5794 -81.0717 212° Southwest 362 417 14,300 -660 Descending Miami Center
19:12 27.4961 -81.1317 213° Southwest 355 409 14,100 -420 Descending Miami Center
19:13 27.4153 -81.1894 212° Southwest 350 403 13,500 -780 Descending Miami Center
19:14 27.3469 -81.2408 214° Southwest 350 403 12,600 -1,020 Descending Miami Center
19:15 27.2594 -81.3028 212° Southwest 345 397 11,500 -1,020 Descending Miami Center
19:16 27.1847 -81.3558 212° Southwest 339 390 10,600 -840 Descending Miami Center
19:17 27.1100 -81.4067 211° Southwest 334 384 9,900 -360 Descending Miami Center
19:18 27.0303 -81.4153 185° South 301 346 9,900  Level Miami Center
19:19 26.9594 -81.4147 180° South 285 328 10,000  Climbing Miami Center
19:20 26.8739 -81.4092 177° South 280 322 9,900  Descending Miami Center
19:21 26.8014 -81.3925 168° South 275 316 10,000 -600 Climbing Miami Center
19:22 26.7219 -81.3961 182° South 275 316 8,700 -1,500 Descending Miami Center
19:23 26.6586 -81.4169 196° South 264 304 7,000 -1,560 Descending Miami Center
19:24 26.6106 -81.4850 232° Southwest 269 310 5,600 3,480 Descending Miami Center
19:25 26.5622 -81.5642 236° Southwest 281 323 14,000 -840 Climbing Miami Center
19:26 26.5142 -81.6294 231° Southwest 281 323 4,000 -10,020 Descending Miami Center
19:28 26.5333 -81.7500 318° Northwest  Level FlightAware Approximate
19:35 26.5362 -81.7552 318° Northwest  Level Estimated
19:36 26.5333 -81.7500 318° Northwest  Level FlightAware Approximate
19:37 26.5362 -81.7552 318° Northwest  Level Estimated
19:38 26.5333 -81.7500 318° Northwest  Level FlightAware Approximate
19:39 26.5362 -81.7552 318° Northwest  Level Estimated
19:40 26.5333 -81.7500 318° Northwest  Level FlightAware Approximate
19:41 26.5362 -81.7552 318° Northwest  Level Estimated
19:42 26.5333 -81.7500 318° Northwest  Level FlightAware Approximate